sat.trackr.live / text

‹ back to catalog

STARLINK-35124

NORAD 65511 · 2025-198V

PAYLOAD ACTIVE UNKNOWN

§ Identity

Operator
Country
US
Launch date
2025-09-05
Launch site
AFETR
Launch vehicle
Mass (kg)
RCS (m²)

Purposes: comms

External: N2YO · Heavens-Above · Gunter

§ Orbital elements

Epoch: 2026-09-20T01:14:35.992608Z

Period
93.85 min
Inclination
53.1569°
Eccentricity
0.0000959
Mean motion
15.34390788 rev/d
Perigee alt
462.1 km
Apogee alt
463.4 km
Semi-major
6,840.9 km
B*
4.7709e-4
RAAN
83.5344°
Arg perigee
82.2103°
Mean anomaly
277.9008°
Rev number
5,843

§ Raw data

STARLINK-351241 65511U 25198V   26263.05180547  .00015772  00000+0  47709-3 0  99932 65511  53.1569  83.5344 0000959  82.2103 277.9008 15.34390788 58436

JSON: /api/v1/satellites/65511 · /tle

For live sub-satellite position, see the globe view (requires WebGL).

§ Visibility from observer

Set your observer location to see the next 7 days of passes ≥ 10°. The values pass through the URL so the page stays shareable.

No JS? Fill the form by hand. The geolocation button needs JavaScript.